Flag for U.S.A. Weather past 2 weeks in Green Bay, Wisconsin, U.S.A.

Now
80 °F

Partly sunny.


Feels Like: 80 °F
Forecast: 66 / 83 °F
Wind: 15 mph from West

Location: Austin Straubel International Airport

Current Time: Jul 29, 2015 at 7:52:13 PM

Latest Report: Jul 29, 2015 at 6:53 PM


Visibility: 10 mi

Pressure: 29.86 "Hg

Humidity: 41%

Dew point: 54 °F

Location of Green BayLocation

Historic Weather in Green Bay — Graph

°F

Green Bay temperature yesterday

Maximum temperature yesterday: 88 °F (at 1:53 PM)
Minimum temperature yesterday: 60 °F (at 3:53 AM)
Average temperature yesterday: 75 °F

Past Weeks' High & Low Weather Summary

 TemperatureHumidityPressure
High88 °F (Jul 28, 1:53 PM)97% (Jul 17, 1:53 AM)30.07 "Hg (Jul 17, 1:53 AM)
Low51 °F (Jul 15, 4:53 AM)31% (Jul 29, 3:53 PM)29.66 "Hg (Jul 20, 3:53 PM)
Average72 °F71%29.89 "Hg
* Reported Jul 14 6:53 PM — Jul 29 6:53 PM, Green Bay, Weather by CustomWeather, © 2015

Note: Actual official high and low records may vary slightly from our data, if they occured in-between our weather recording intervals... More about our weather records

Advertising

Green Bay weather history for previous 24 hours

 ConditionsComfort  
Time TempWeatherWind HumidityBarometerVisibility
6:53 PM
Wed, Jul 29
80 °FPartly sunny.15 mph41%29.86 "Hg10 mi
5:53 PM83 °FSunny.22 mph37%29.84 "Hg10 mi
4:53 PM84 °FSunny.18 mph33%29.83 "Hg10 mi
3:53 PM85 °FSunny.18 mph31%29.83 "Hg10 mi
2:53 PM84 °FSunny.22 mph33%29.85 "Hg10 mi
1:53 PM84 °FSunny.16 mph35%29.85 "Hg10 mi
12:53 PM83 °FSunny.18 mph34%29.86 "Hg10 mi
11:53 AM81 °FSunny.23 mph38%29.86 "Hg10 mi
10:53 AM79 °FSunny.20 mph38%29.87 "Hg10 mi
9:53 AM78 °FSunny.16 mph46%29.88 "Hg10 mi
8:53 AM77 °FSunny.18 mph52%29.88 "Hg10 mi
7:53 AM74 °FSunny.12 mph62%29.90 "Hg10 mi
6:53 AM75 °FOvercast.9 mph64%29.88 "Hg10 mi
5:53 AM75 °FMostly cloudy.9 mph85%29.87 "Hg10 mi
4:53 AM75 °FPassing clouds.7 mph88%29.85 "Hg10 mi
3:53 AM73 °FFog.5 mph90%29.85 "Hg4 mi
2:53 AM72 °FFog.5 mph91%29.84 "Hg4 mi
1:53 AM72 °FFog.No wind87%29.85 "Hg5 mi
12:53 AM72 °FFog.7 mph87%29.88 "Hg6 mi
11:53 PM
Tue, Jul 28
74 °FClear.8 mph82%29.90 "Hg7 mi
10:53 PM74 °FClear.6 mph82%29.89 "Hg8 mi
9:53 PM74 °FClear.7 mph79%29.88 "Hg9 mi
8:53 PM76 °FSunny.6 mph74%29.89 "Hg10 mi
7:53 PM79 °FSunny.8 mph65%29.89 "Hg10 mi
Weather by CustomWeather, © 2015

See weather overviewHow to use our weather pages